Location: New Plymouth
(39.0670°S, 174.0830°E)
Time: 19:46:46
(UTC+13:00)

Resurs 1-3 - Pass Details

Date: 24 January 2019
Orbit: 631 x 632 km, 98.0° (Epoch: 20 February)

Event Time Altitude Azimuth Distance (km) Brightness Sun altitude
Rises 21:49:31 0° 160° (SSE) 2,963 7.3 -11.3°
Reaches altitude 10° 21:51:52 10° 152° (SSE) 2,046 6.3 -11.7°
Maximum altitude 21:56:03 40° 82° (E) 955 4.1 -12.3°
Enters shadow 21:59:42 13° 15° (NNE) 1,838 5.5 -12.9°
